Regional Weather Roundup
Issued by NWS

Home | Current Version | Previous Version | Graphics & Text | Print | Product List | Glossary On
Versions: 1 2 3 4 5 6 7 8 9 10 11 12 13 14 15 16 17 18 19 20 21 22 23 24 25 26 27 28 29 30 31 32 33 34 35 36 37 38 39 40 41 42 43 44 45 46 47 48 49 50
000
ASUS43 KLMK 040702
RWRKY
KENTUCKY REGIONAL WEATHER ROUNDUP
NATIONAL WEATHER SERVICE LOUISVILLE KY
300 AM EDT SAT JUL 04 2015

NOTE "FAIR" INDICATES FEW OR NO CLOUDS BELOW 12,000 FEET
WITH NO SIGNIFICANT WEATHER AND/OR OBSTRUCTIONS TO VISIBILITY.

KYZ001>023-026-027-061>063-070>075-040800-
WESTERN AND SOUTH CENTRAL KENTUCKY

CITY           SKY/WX    TMP DP  RH WIND       PRES   REMARKS
PADUCAH        MOCLDY    69  67  93 CALM      29.90S
HENDERSON      MOCLDY    64  64 100 CALM      29.89F
OWENSBORO      NOT AVBL
HOPKINSVILLE   CLOUDY    70  69  96 SW5       29.90F
BOWLING GREEN  CLOUDY    71  68  90 CALM      29.91S
GLASGOW        NOT AVBL
$$

KYZ024-025-028>034-038-045-046-053-040800-
NORTH CENTRAL KENTUCKY

CITY           SKY/WX    TMP DP  RH WIND       PRES   REMARKS
LOUISVILLE/SDF CLOUDY    71  67  87 N5        29.90S
LOUISVILLE/LOU CLOUDY    70  68  93 NW5       29.91S FOG
FORT KNOX      CLOUDY    69  68  96 W3        29.90S FOG
$$

KYZ035>037-039>044-047>052-055>060-089>105-040800-
NORTHEAST KENTUCKY

CITY           SKY/WX    TMP DP  RH WIND       PRES   REMARKS
LEXINGTON      CLOUDY    68  67  96 W3        29.92S FOG
COVINGTON      CLOUDY    68  64  87 N6        29.92S FOG
FRANKFORT      CLOUDY    68  66  93 N3        29.91R FOG
$$

KYZ054-064>069-076>088-106>120-040800-
SOUTHEAST KENTUCKY

CITY           SKY/WX    TMP DP  RH WIND       PRES   REMARKS
JACKSON        LGT RAIN  67  66  97 CALM      29.93S FOG
LONDON         CLOUDY    69  65  86 SW7       29.93S
SOMERSET       NOT AVBL
MIDDLESBORO    NOT AVBL
MONTICELLO     CLOUDY    70  70 100 CALM      29.96R
$$




USA.gov is the U.S. government's official web portal to all federal, state and local government web resources and services.